Regional Weather Roundup
Issued by NWS

Home | Current Version | Previous Version | Graphics & Text | Print | Product List | Glossary On
Versions: 1 2 3 4 5 6 7 8 9 10 11 12 13 14 15 16 17 18 19 20 21 22 23 24 25 26 27 28 29 30 31 32 33 34 35 36 37 38 39 40 41 42 43 44 45 46 47 48 49 50
000
ASUS45 KCYS 301910
RWRWY

WYOMING REGIONAL WEATHER ROUNDUP
NATIONAL WEATHER SERVICE CHEYENNE WY
100 PM MDT THU JUL 30 2015

NOTE:  "FAIR" INDICATES FEW OR NO CLOUDS BELOW 12,000 FEET
WITH NO SIGNIFICANT WEATHER AND/OR OBSTRUCTIONS TO VISIBILITY.

WYZ001-302000-
YELLOWSTONE NATIONAL PARK

CITY           SKY/WX    TMP DP  RH WIND       PRES   REMARKS
LK YELLOWSTONE   N/A     67  41  38 VRB5      30.56F
W YELLOWSTONE  NOT AVBL

$$
WYZ002>013-054>058-071-098>099-302000-
NORTHERN WYOMING

CITY           SKY/WX    TMP DP  RH WIND       PRES   REMARKS
JACKSON        FAIR      73  37  27 CALM      30.45F
CODY           FAIR      81  34  18 E10G17    30.34F
GREYBULL       FAIR      84  32  15 VRB6      30.28F
WORLAND        FAIR      83  32  16 VRB3      30.31F
SHERIDAN       FAIR      85  36  17 SW3       30.29F
BUFFALO        FAIR      82  35  18 SE7       30.35F
GILLETTE       FAIR      83  36  18 S10G16    30.31F
HULETT         FAIR      81  37  21 NW10      30.32S
NEWCASTLE      FAIR      82  32  16 W6        30.31F

$$
WYZ014>020-022>026-101>103-302000-
CENTRAL WYOMING

CITY           SKY/WX    TMP DP  RH WIND       PRES   REMARKS
BIG PINEY      FAIR      74  23  15 SW9       30.49F
PINEDALE       FAIR      75  19  12 SE5       30.49F
DUBOIS         FAIR      73  18  12 CALM      30.47F
LANDER         FAIR      80  31  16 NE3       30.37F
RIVERTON       FAIR      79  29  16 VRB6      30.39F
CASPER         FAIR      83  27  13 VRB3      30.36F
DOUGLAS        FAIR      85  40  20 E6        30.34F

$$
WYZ021-027>030-104>119-302000-
SOUTHERN WYOMING

CITY           SKY/WX    TMP DP  RH WIND       PRES   REMARKS
EVANSTON       FAIR      76  19  11 VRB6      30.49F
KEMMERER       FAIR      77  21  12 E6        30.50F
FORT BRIDGER   CLEAR     79  23  12 N7        30.50F
ROCK SPRINGS   FAIR      77  27  15 SW7       30.45F
DIXON          FAIR      84  18   8 W5        30.45S
RAWLINS        FAIR      81  18   9 VRB7      30.44F
SARATOGA       FAIR      81  21  11 N6        30.47F
LARAMIE        FAIR      79  24  13 NE13      30.47F
CHEYENNE       FAIR      81  45  28 VRB6G18   30.40F
TORRINGTON     FAIR      84  50  30 VRB7      30.29F
PINE BLUFFS    FAIR      82  48  30 E7        30.35F

$$



USA.gov is the U.S. government's official web portal to all federal, state and local government web resources and services.